Regional Weather Roundup
Issued by NWS Midland/Odessa, TX

Home | Current Version | Previous Version | Text Only | Print | Product List | Glossary On
Versions: 1 2 3 4 5 6 7 8 9 10 11 12 13 14 15 16 17 18 19 20 21 22 23 24 25 26 27 28 29 30 31 32 33 34 35 36 37 38 39 40 41 42 43 44 45 46 47 48 49 50
000
ASUS44 KMAF 181810
RWRMAF
MIDLAND AREA WEATHER ROUNDUP
NATIONAL WEATHER SERVICE MIDLAND TX
1200 PM CST SUN FEB 18 2018

...IN SOUTHWEST TEXAS AND SOUTHEAST NEW MEXICO...

CITY           SKY/WX    TMP DP  RH WIND       PRES   REMARKS
ALPINE         SUNNY     73  47  39 S15G23    30.09F
ANDREWS        FAIR      70  49  46 SW17      29.98F
ARTESIA        MOSUNNY   64  48  55 S29G37    29.93F
BIG SPRING     MOSUNNY   71  55  56 S26G36    30.00F
CARLSBAD       MOSUNNY   65  47  52 S9        29.96F
DRYDEN           N/A     61  59  93 SE5       30.01F
FORT STOCKTON  SUNNY     75  50  41 S12       29.98F
GUAD PASS      SUNNY     62  45  53 SW31      30.03F
HOBBS          SUNNY     68  37  32 SW16      29.97F
LAMESA         MOCLDY    68  54  60 SW23G29   29.97F
MARFA          SUNNY     69  48  47 S20G25    30.07F
MIDLAND AIRPK    N/A     73  55  53 SW15G22   29.99F
MIDLAND INTL   SUNNY     72  54  53 S24G30    29.98F
ODESSA         SUNNY     72  52  49 S24G31    29.99F
PECOS          SUNNY     64  36  35 NE3       29.98F
PRESIDIO       FAIR      73  51  46 SE6       30.03F
SEMINOLE       SUNNY     68  42  38 SW17      29.98F
SNYDER         CLOUDY    60  51  72 S15G22    29.98F
WINK           SUNNY     67  39  35 VRB7      29.97F
$$
...OTHER STATIONS IN TEXAS...

CITY           SKY/WX    TMP DP  RH WIND       PRES   REMARKS
ABILENE        CLOUDY    58  55  90 S10       29.98F
AMARILLO       SUNNY     63  38  39 SW25G36   29.86F
AUSTIN         CLOUDY    57  57 100 CALM      30.11F FOG
BROWNSVILLE    FAIR      82  69  64 S28G35    30.07F
CORPUS CHRISTI PTSUNNY   77  69  76 S20       30.07F
DALLAS FTW     CLOUDY    54  51  90 S10       30.10F FOG
DEL RIO        CLOUDY    63  60  90 SE9       30.03F
EL PASO        PTSUNNY   62  48  60 SW3       30.01F
HOUSTON INT    PTSUNNY   71  65  81 S10       30.13F
LUBBOCK        PTSUNNY   65  45  48 SW26      29.91F
SAN ANGELO     CLOUDY    67  60  78 S20       29.99R
SAN ANTONIO    DRIZZLE   59  57  93 E3        30.10F FOG
WACO           CLOUDY    54  51  90 S8        30.11F FOG
WICHITA FALLS  CLOUDY    50  41  71 S28G40    29.85F
$$
...OTHER LOCATIONS IN NEW MEXICO...

CITY           SKY/WX    TMP DP  RH WIND       PRES   REMARKS
ALAMOGORDO     PTSUNNY   63  45  51 S13       30.03F
ALBUQUERQUE    MOSUNNY   52  38  58 CALM      29.97F
CANNON AFB     SUNNY     60  41  50 SW22      29.91F
CLOVIS         NOT AVBL
HOLLOMAN AFB   NOT AVBL
ROSWELL        SUNNY     61  44  53 S9        29.93F
RUIDOSO        NOT AVBL
SANTA FE       MOSUNNY   48  32  53 SW12      29.97F
TRUTH OR CONSE MOSUNNY   57  48  72 SW12      29.99F
TUCUMCARI      SUNNY     65  36  34 SW26G36   29.81F
$$



USA.gov is the U.S. government's official web portal to all federal, state and local government web resources and services.